Regional Weather Roundup
Issued by NWS

Home | Current Version | Previous Version | Graphics & Text | Print | Product List | Glossary On
Versions: 1 2 3 4 5 6 7 8 9 10 11 12 13 14 15 16 17 18 19 20 21 22 23 24 25 26 27 28 29 30 31 32 33 34 35 36 37 38 39 40 41 42 43 44 45 46 47 48 49 50
000
ASUS45 KTFX 260404
RWRMT
MONTANA HOURLY WEATHER ROUNDUP
NATIONAL WEATHER SERVICE GREAT FALLS MT
1004 PM MDT FRI JUL 25 2014

NOTE: "FAIR" INDICATES FEW OR NO CLOUDS BELOW 12000 FEET WITH NO
SIGNIFICANT WEATHER AND/OR OBSTRUCTIONS TO VISIBILITY.

* THESE STATIONS ARE NOT UNDER NWS QUALITY CONTROL. THEY DO NOT
   REPORT WEATHER SUCH AS PRECIPITATION OR FOG.

MTZ001>007-043-260500-
WEST OF THE DIVIDE
CITY           SKY/WX    TMP DP  RH WIND       PRES   REMARKS
KALISPELL      CLEAR     61  43  52 CALM      30.06R
MISSOULA       CLEAR     64  39  40 N3        30.08R
BUTTE          CLEAR     63  25  24 N7        30.15R
MULLAN PASS    CLEAR     50  39  66 VRB3      30.21R
* ESSEX        N/A       59  44  58 N/A        N/A
* LINCOLN      N/A       64  40  41 SW3G11     N/A
* LOOKOUT PASS N/A       55  44  67 VRB1       N/A
* POLSON       N/A       60  39  46 NW2        N/A
* RONAN APT    CLEAR     63  46  54 N/A        N/A
* SEELEY LAKE  N/A       64  36  35 N3G11      N/A
* THOMP F APT  CLEAR     65  29  26 NE5G12     N/A
$$

MTZ008-052>055-260500-
SOUTHWEST MONTANA
CITY           SKY/WX    TMP DP  RH WIND       PRES   REMARKS
BOZEMAN        CLEAR     64  32  30 VRB3      30.08R
DILLON         CLEAR     61  36  39 NE8       30.09R
W YELLOWSTONE  CLEAR     59  32  36 SW5       30.17R
* THREE FORKS  CLEAR     70  39  32 N/A        N/A
* BOULDER HILL N/A       61  30  31 N2G8       N/A
* MONIDA PASS  N/A       66  28  24 SE9G16     N/A
* RAYNOLDS PAS N/A       59  39  48 S9         N/A
* WHITEHALL    N/A       68  24  19 NW4G10     N/A
* WISE RIVER   N/A       63  27  26 W9G14      N/A
$$

MTZ009>010-012-014-046-048-049-054-260500-
EAST SLOPES AND CENTRAL MONTANA
CITY           SKY/WX    TMP DP  RH WIND       PRES   REMARKS
CUT BANK       CLEAR     57  39  51 W12       30.01R
GREAT FALLS    CLEAR     63  36  37 W12       30.00R
HELENA         CLEAR     70  36  29 CALM      30.07R
MALMSTROM AFB  CLEAR     68  36  31 NW7G16    30.02R
* CONRAD       CLEAR     63  45  52 SW6        N/A
* DEARBORN     N/A       73  37  27 S13        N/A
* EAST GLACIER N/A       60  36  41 W18G28     N/A
* MONARCH      N/A       56  25  30 W8         N/A
* PENDROY      N/A       58  38  47 W14        N/A
* SAINT MARY   N/A       60  37  43 S7G19      N/A
* SWEET GRASS  N/A       57  49  75 NE9        N/A
$$

MTZ011-013-016-021-035-040-045-047-050-051-260500-
NORTH CENTRAL MONTANA
CITY           SKY/WX    TMP DP  RH WIND       PRES   REMARKS
HAVRE          PTCLDY    61  48  62 VRB7      29.96R
LEWISTOWN      CLEAR     66  36  33 NW8       30.00R
* CHESTER      N/A       60  47  62 NE7G15     N/A
* DENTON       N/A       66  30  26 NW6        N/A
* GEYSER       N/A       61  31  32 W8         N/A
* JUDITH GAP   N/A       67  27  22 NW13G19    N/A
* LOMA         N/A       73  36  26 W19G29     N/A
$$

MTZ017>020-022>027-061-062-260500-
NORTHEAST MONTANA
CITY           SKY/WX    TMP DP  RH WIND       PRES   REMARKS
GLASGOW        CLEAR     61  48  62 NW7       29.86R
GLENDIVE       CLEAR     63  41  45 W7        29.85R
JORDAN         CLEAR     70  45  41 N17       29.88R
SIDNEY         CLEAR     64  39  40 NW7       29.81R
WOLF POINT     CLEAR     64  48  56 N3        29.85R
* BEAVER HILL  N/A       67  40  37 N/A        N/A
* CIRCLE       N/A       71  49  46 N10G15     N/A
* LINDSAY DVD  N/A       61  37  41 W10        N/A
* NAVAJO       N/A       55  49  80 W7         N/A
$$

MTZ028>042-056>058-260500-
SOUTHCENTRAL AND SOUTHEAST MONTANA
CITY           SKY/WX    TMP DP  RH WIND       PRES   REMARKS
BAKER          CLEAR     63  45  52 SE3       29.89R
BILLINGS       CLEAR     73  30  20 N9        29.97R
LIVINGSTON     CLEAR     66  30  26 S5        30.06R
MILES CITY     CLEAR     70  28  21 NW6       29.87R
* LAUREL APT   CLEAR     70  32  25 NW5        N/A
* ROUNDUP APT  CLEAR     73  28  19 NW18       N/A
* ALZADA       N/A       70  50  49 NE4        N/A
* HYSHAM       N/A       75  27  17 NW2G8      N/A
* LAME DEER    N/A       69  25  19 NW6G11     N/A
* REED POINT   N/A       74  34  23 W8         N/A
* ROSCOE HILL  N/A       67  27  22 NW5        N/A
$$

REGIONAL REPORTS...DAKOTAS
CITY           SKY/WX    TMP DP  RH WIND       PRES   REMARKS
WILLISTON      CLEAR     66  48  52 N22G31    29.81R
DICKINSON      CLEAR     64  54  70 W12       29.83R
CROSBY         N/A       55  55 100 NW7       29.80R
TIOGA          CLEAR     57  57 100 S5        29.81R
WATFORD CITY   HAZE      57  52  83 SW5       29.78R
BISMARCK       CLEAR     61  54  78 S7        29.80S
GRAND FORKS    CLEAR     63  57  81 SW5       29.77S
FARGO          CLEAR     64  57  78 CALM      29.81R
BUFFALO SD     CLEAR     72  48  43 W5        29.84R
RAPID CITY     CLEAR     68  54  61 CALM      29.89S
$$

REGIONAL REPORTS...WYOMING/IDAHO/WASHINGTON
CITY           SKY/WX    TMP DP  RH WIND       PRES   REMARKS
GILLETTE       PTCLDY    63  48  58 CALM      29.96R
SHERIDAN       PTCLDY    72  41  33 W13       29.98R
YELLOWSTONE LA CLEAR     46  30  54 NW3       30.29R
SALMON         CLEAR     70  37  30 N14       30.01R
MULLAN PASS    CLEAR     50  39  66 VRB3      30.21S
SAND POINT     CLEAR     59  50  72 W3        30.05R
SPOKANE        FAIR      72  36  27 S6        30.05R

$$




USA.gov is the U.S. government's official web portal to all federal, state and local government web resources and services.